Temperature
18 18 19 19 18 18 18 18 18 18 18 18 18 18 18 18 18 18 18 18 18 18 18 18 18 18 18 18 18 18 18 18 18 18 18 18 18 18 18 18 18 18 18
18 18 19 18 18 18 18 18 18 18 18 18 18 18 18 18 17 17 18 18 18 18 18 18 18 18 18 18 18 18 18 18 18 18 18 18 18 18 18 18 18 18 18
18 18 18 18 18 18 18 18 18 18 18 18 18 18 18 17 17 17 17 18 18 18 18 18 18 18 18 18 18 18 18 18 18 17 17 17 18 18 18 18 18 18 18
18 18 18 18 18 18 18 18 18 18 18 18 18 17 17 17 17 17 17 17 17 17 17 17 17 18 18 18 18 18 18 17 17 17 17 17 17 17 18 18 17 18 18
18 18 18 18 18 18 18 18 18 18 18 18 17 17 17 17 17 17 17 17 17 17 17 17 17 17 17 17 18 17 17 17 17 17 17 17 17 17 17 17 17 17 17
18 18 18 18 18 18 18 18 17 17 17 17 17 17 17 17 17 17 17 17 17 17 17 17 17 17 17 17 17 17 17 17 17 17 17 17 17 17 17 17 17 17 17
18 18 18 18 18 18 18 18 17 17 17 17 17 17 17 17 17 17 17 17 17 17 17 17 17 17 17 17 17 17 17 17 17 17 17 17 17 17 17 17 17 17 17
18 18 18 18 18 18 18 18 17 17 17 17 17 17 17 17 17 17 17 17 17 17 17 17 17 17 17 17 17 17 17 17 16 17 17 17 17 17 17 17 17 17 17
18 18 18 18 18 18 17 17 17 17 17 17 17 17 17 17 17 17 17 17 17 17 17 17 17 17 17 17 17 17 17 17 16 16 17 16 16 16 16 16 16 16 16
18 18 18 18 17 17 17 17 17 17 17 17 17 17 17 17 17 17 17 17 17 17 17 17 17 17 17 17 17 17 17 16 16 16 16 16 16 16 16 16 16 16 16
18 18 18 18 17 17 17 17 17 17 17 17 17 17 17 17 16 17 17 17 17 17 17 17 17 17 17 17 16 16 16 16 16 16 16 16 16 16 16 16 16 16 16
18 18 18 18 18 17 17 17 17 17 17 17 17 17 17 16 17 17 17 17 16 16 16 16 16 16 16 16 16 16 16 16 16 16 16 16 16 16 16 16 16 16 16
19 18 18 18 18 18 17 17 17 17 17 17 17 17 17 17 17 17 16 16 16 16 16 16 16 16 16 16 16 16 16 16 16 16 16 16 16 16 16 16 16 16 16
19 19 18 18 18 18 18 17 17 17 17 17 17 17 17 17 17 17 17 16 16 16 16 16 16 16 16 16 16 16 16 16 16 16 16 16 16 16 16 16 15 15 15
19 18 18 18 18 18 18 18 17 17 17 17 17 17 17 17 17 17 17 16 16 16 16 16 16 16 16 16 16 16 16 16 15 15 15 15 15 15 15 15 15 15 15
19 18 18 18 18 18 18 18 17 17 17 17 17 17 17 17 17 17 17 17 16 16 16 16 16 16 16 16 16 16 15 15 15 15 15 15 15 15 15 15 15 15 15
19 18 18 18 18 18 18 18 17 17 17 17 17 17 17 17 17 17 17 17 16 16 16 16 16 16 16 16 15 15 15 15 15 15 15 15 15 15 15 15 15 15 15
19 19 18 18 18 18 18 17 17 17 17 17 17 17 17 17 17 17 17 16 16 16 16 16 16 16 16 15 15 15 15 15 15 15 15 15 15 15 15 15 14 15 14
19 19 18 18 18 18 17 17 17 17 17 17 17 17 17 17 17 17 16 16 16 16 16 16 16 16 16 15 15 15 15 15 15 15 15 14 14 14 14 14 14 14 14
19 19 18 18 18 17 17 17 17 17 17 17 17 17 17 17 16 16 16 16 16 16 16 16 16 15 15 15 15 15 15 15 15 15 15 14 14 14 14 14 14 14 14
19 18 18 18 18 17 17 17 17 17 17 17 17 17 16 16 16 16 16 16 16 16 16 16 15 15 15 15 15 15 15 15 15 15 15 14 14 14 14 14 14 14 14
18 18 18 18 17 17 17 17 17 17 17 16 16 16 16 16 16 16 16 16 16 15 15 15 15 15 15 15 15 15 14 14 14 15 14 14 14 14 14 14 13 14 14
18 18 18 18 17 17 17 17 17 17 16 16 16 16 16 16 16 16 16 16 15 15 15 15 15 15 15 15 15 15 15 14 14 14 14 14 14 14 13 13 13 13 13
18 18 18 18 18 17 17 17 17 16 16 16 16 16 16 16 16 16 16 16 15 15 15 15 15 15 15 15 15 15 15 15 14 14 14 14 14 14 13 13 13 13 13
18 18 18 18 17 17 17 17 17 17 16 16 16 16 16 16 16 16 16 15 15 15 15 15 15 15 15 15 15 15 15 15 15 14 13 13 13 13 13 13 13 13 13
18 18 18 18 17 17 17 17 17 16 16 16 16 16 16 16 16 16 16 16 15 15 15 15 15 15 15 15 15 15 15 15 15 15 14 13 13 13 13 13 13 13 13
Wind_Speed
7 9 10 10 10 10 10 10 11 11 11 11 11 11 11 11 12 12 12 12 12 12 12 11 11 11 12 12 12 11 11 10 10 10 11 11 11 11 11 10 10 9 10
9 10 10 10 10 10 10 11 11 11 11 11 10 10 11 11 11 11 11 11 11 12 11 11 10 10 11 11 11 10 9 8 7 7 9 10 11 11 11 12 12 9 10
9 10 11 10 10 10 10 11 11 11 11 11 10 10 11 11 11 11 11 11 11 12 11 11 11 11 11 10 10 9 8 6 5 4 6 9 10 11 11 11 11 10 10
10 11 11 11 10 10 11 11 11 11 11 11 10 10 10 11 11 11 11 11 11 11 11 11 11 11 11 10 9 8 6 6 5 5 8 10 10 11 11 10 10 10 9
10 12 13 12 12 11 11 11 11 11 11 11 10 10 10 11 11 10 10 11 11 11 11 11 11 11 10 9 8 7 6 6 6 9 11 12 12 11 11 11 10 10 10
11 13 13 12 12 12 11 11 11 11 11 11 11 10 10 10 10 10 10 10 10 10 10 10 10 10 10 9 8 7 7 7 8 10 11 12 11 11 11 11 11 10 10
10 12 13 12 12 12 11 11 11 10 10 10 10 10 10 10 10 10 10 10 10 10 10 10 10 9 9 8 8 7 7 7 8 10 11 12 12 12 11 11 11 10 10
10 12 13 12 12 12 11 11 10 10 9 9 9 10 10 10 10 10 10 10 9 9 9 9 9 9 8 7 7 7 8 8 10 12 11 12 12 11 11 11 11 11 10
9 10 10 11 12 12 11 10 9 9 8 8 8 9 9 9 9 10 10 9 9 9 9 9 9 8 8 7 6 7 9 10 10 9 11 11 11 11 11 11 11 11 10
7 7 8 10 11 11 11 10 9 8 8 7 7 8 9 9 10 10 9 9 9 9 8 8 8 7 6 5 5 6 7 8 11 11 10 10 11 11 11 11 11 10 10
6 5 6 7 8 10 10 10 9 8 7 6 7 8 8 7 8 9 10 10 8 8 7 6 6 5 4 3 3 5 6 7 12 11 10 11 12 12 12 12 11 11 10
5 5 4 6 7 7 7 8 7 8 8 6 6 7 6 5 8 9 10 9 7 6 5 4 4 4 3 2 3 3 5 9 10 10 10 12 12 12 12 12 12 12 11
4 4 4 4 5 6 4 5 4 5 5 5 5 5 5 6 6 8 8 8 7 6 4 4 4 2 2 3 5 6 8 10 11 10 11 13 13 12 12 12 12 12 11
4 4 3 3 4 5 5 4 3 3 3 3 4 5 4 2 2 3 4 5 5 3 2 2 2 3 5 7 8 8 9 9 10 10 11 13 13 12 12 11 11 11 11
4 3 3 3 3 3 4 2 3 3 2 3 2 3 5 3 2 2 2 3 3 3 3 3 4 4 5 6 8 8 7 8 10 10 10 13 13 13 12 12 11 11 11
4 3 4 3 4 3 4 2 2 3 3 3 2 2 4 4 2 2 2 2 3 4 4 4 5 4 4 5 6 7 6 7 9 10 9 10 12 12 13 12 12 11 11
4 4 4 4 4 4 3 2 3 3 3 2 2 1 3 4 3 3 2 2 3 5 5 5 6 4 4 4 4 5 5 6 7 7 8 8 10 11 12 12 12 12 12
4 4 4 4 4 4 3 3 2 3 3 2 2 2 2 3 4 4 2 2 4 5 4 3 3 3 3 3 3 3 4 4 5 5 7 8 8 9 11 12 12 12 12
3 4 4 4 4 4 4 3 2 3 3 3 3 3 3 4 4 5 2 2 4 3 3 3 4 3 3 3 2 2 2 3 3 5 6 8 8 10 10 11 11 11 11
2 3 4 4 3 4 4 3 2 3 2 3 3 2 3 2 3 5 2 2 4 3 3 3 3 3 2 2 3 3 2 2 3 4 4 6 7 8 9 9 9 10 11
2 2 4 5 4 4 3 2 3 2 1 2 2 2 3 2 4 5 2 2 3 3 2 3 3 3 2 2 2 2 2 3 3 3 3 4 5 7 8 8 8 8 9
3 2 3 5 5 5 4 3 3 3 2 2 1 2 2 3 3 3 3 3 3 2 2 2 2 2 1 1 2 2 1 2 3 3 2 3 4 6 6 8 9 9 9
4 4 3 4 5 6 6 3 3 2 1 2 2 1 1 2 2 2 3 3 3 3 2 1 2 2 1 1 1 2 2 1 1 2 3 3 3 3 4 6 9 10 10
4 4 4 5 5 6 7 5 4 3 2 3 3 2 2 2 2 2 3 3 3 3 3 2 2 1 1 1 0 0 1 3 2 0 2 2 3 3 3 5 7 9 10
5 4 3 5 4 5 6 6 4 3 3 3 3 3 3 2 2 2 2 3 3 3 3 1 1 1 1 1 1 0 1 0 1 2 1 0 1 2 2 4 6 7 10
4 4 3 3 3 4 5 6 5 4 3 3 3 3 2 2 2 2 2 2 3 3 3 2 2 1 0 0 0 1 1 1 1 1 2 2 1 1 2 3 4 6 8
Wind_Direction
89 86 85 81 79 81 84 81 80 85 85 84 83 82 81 81 79 78 79 79 78 75 74 74 73 72 70 69 69 68 69 69 72 76 77 78 74 69 67 66 66 72 76
100 97 94 88 84 83 84 84 85 87 88 89 87 85 83 82 80 80 79 80 78 77 75 75 75 74 72 72 71 69 67 67 70 77 84 84 77 69 66 64 63 71 74
102 104 97 92 90 88 88 88 89 90 91 91 88 87 87 83 80 81 80 79 77 76 75 75 74 74 73 72 71 69 65 57 49 54 73 92 83 73 69 67 66 67 68
97 97 95 95 93 93 94 94 93 95 95 95 91 89 89 86 83 81 79 78 76 73 73 75 75 74 71 70 69 66 56 37 28 49 64 75 76 76 72 69 67 65 66
94 94 97 95 93 92 93 94 96 97 97 96 93 92 91 89 86 84 83 81 78 74 73 75 75 74 71 67 63 55 37 21 37 59 70 74 72 75 72 69 65 64 66
100 99 101 99 99 96 96 97 99 99 99 98 94 94 93 92 91 87 83 82 80 79 77 77 74 73 69 64 57 43 26 32 56 68 71 76 75 75 73 70 67 66 67
108 109 109 105 105 102 100 99 100 100 100 100 97 96 95 93 92 89 85 84 83 82 81 79 76 73 70 62 51 36 27 38 74 75 70 73 74 76 73 68 66 65 67
113 113 115 113 111 106 103 102 102 102 102 101 101 102 100 98 94 91 88 86 85 85 84 83 78 76 73 62 48 38 31 37 73 73 73 72 75 76 73 68 66 64 64
111 119 127 129 123 117 111 108 108 109 111 111 113 113 111 108 106 100 95 92 91 89 89 88 84 82 77 65 51 38 31 37 65 66 69 71 76 74 72 70 68 64 64
112 124 131 136 134 130 124 121 119 120 124 130 131 131 128 127 124 116 108 101 99 97 96 98 96 93 88 75 52 38 34 43 69 65 66 73 77 76 74 73 70 66 65
110 120 128 128 127 130 133 135 139 139 145 151 155 157 155 151 133 121 112 113 110 111 115 119 121 120 114 91 59 46 45 72 74 69 63 73 74 74 74 73 72 70 68
136 135 130 133 133 131 129 140 153 151 159 168 160 161 170 127 111 119 127 131 134 138 143 158 168 172 183 134 97 68 65 76 78 74 67 73 71 70 72 71 68 66 66
133 127 129 131 127 127 130 136 128 132 150 159 144 134 119 114 131 137 144 151 162 173 180 176 194 188 145 99 89 87 79 75 76 72 68 71 69 68 71 70 66 63 62
138 126 120 122 129 137 129 126 137 141 150 147 142 135 119 112 122 126 137 149 156 154 142 118 103 74 67 69 73 76 77 82 87 82 71 72 69 70 73 71 66 64 62
125 132 139 135 123 121 115 135 143 144 137 123 112 123 129 125 123 118 122 116 124 121 102 77 77 63 52 53 64 69 71 80 89 88 77 74 70 70 73 72 69 66 65
139 150 150 154 132 130 130 136 126 123 117 120 120 148 136 134 131 119 106 110 99 90 86 86 83 75 61 58 57 59 58 69 86 99 94 81 75 73 72 70 71 69 68
164 163 160 162 148 148 132 127 115 115 119 114 132 172 116 116 114 108 109 111 108 100 85 78 78 80 82 71 65 63 59 59 68 85 103 103 90 79 75 72 71 69 67
166 160 147 164 147 135 127 126 119 116 114 122 121 80 78 92 86 84 71 86 88 92 93 83 78 71 70 63 53 53 58 58 62 70 85 95 100 94 84 79 74 69 66
160 148 151 165 152 140 126 124 119 111 108 103 95 78 53 74 96 91 72 79 90 92 89 91 77 78 81 83 78 63 52 51 51 61 74 81 92 103 101 89 80 73 66
137 147 146 138 143 128 119 129 106 94 100 95 90 94 79 80 104 99 97 81 82 77 75 90 94 81 79 83 81 74 53 56 57 47 59 72 81 91 97 101 94 78 68
139 145 142 145 152 131 122 123 118 108 102 96 105 105 115 106 98 104 98 84 76 83 100 110 106 98 79 92 85 65 43 49 76 65 52 59 67 78 90 93 93 92 77
159 171 161 160 154 137 130 140 136 130 136 118 103 95 116 124 122 123 119 112 102 93 88 96 103 107 136 143 124 105 58 20 32 59 56 57 57 60 68 78 83 83 84
174 176 180 157 155 141 138 138 135 123 136 122 126 110 102 103 104 110 125 127 141 136 133 151 156 148 193 235 129 128 135 150 48 18 48 58 53 44 55 64 74 77 80
178 180 178 160 161 153 149 153 159 156 155 152 149 157 158 118 111 100 125 141 144 135 144 199 166 165 157 231 273 265 128 137 144 85 9 50 65 60 54 62 68 75 84
167 164 160 157 160 159 160 156 167 160 153 146 143 155 152 133 135 149 157 145 144 143 155 166 123 164 179 181 179 167 72 132 162 160 177 182 46 57 76 77 77 79 85
150 150 155 153 149 150 156 157 173 164 159 152 154 153 145 137 160 168 149 137 148 159 164 160 159 155 194 58 82 119 139 147 196 146 166 165 126 77 80 79 87 93 95
Height
1523 1522 1522 1522 1523 1523 1524 1524 1525 1525 1526 1526 1527 1528 1528 1528 1529 1529 1530 1530 1530 1531 1531 1531 1531 1532 1532 1532 1532 1533 1533 1533 1534 1534 1534 1534 1534 1534 1535 1535 1535 1535 1535
1523 1523 1523 1523 1524 1524 1525 1525 1526 1526 1527 1527 1528 1529 1529 1530 1530 1531 1531 1531 1532 1532 1532 1533 1533 1533 1533 1533 1534 1534 1534 1535 1535 1535 1535 1535 1535 1535 1536 1536 1536 1536 1536
1523 1523 1524 1524 1525 1525 1526 1527 1527 1528 1528 1529 1529 1530 1531 1531 1532 1532 1532 1533 1533 1534 1534 1534 1534 1534 1534 1535 1535 1535 1536 1536 1536 1537 1537 1537 1536 1537 1537 1537 1537 1537 1537
1524 1524 1524 1525 1526 1526 1527 1527 1528 1529 1529 1530 1531 1531 1532 1533 1533 1533 1534 1534 1535 1535 1535 1536 1536 1535 1536 1536 1536 1537 1537 1537 1538 1538 1538 1538 1538 1538 1538 1538 1538 1538 1538
1525 1525 1525 1526 1527 1527 1528 1528 1529 1530 1531 1531 1532 1533 1534 1534 1534 1535 1535 1536 1536 1537 1537 1537 1537 1537 1537 1537 1537 1538 1538 1538 1539 1539 1539 1539 1539 1539 1538 1538 1539 1539 1539
1526 1526 1526 1527 1528 1528 1529 1530 1531 1531 1532 1533 1534 1534 1535 1535 1536 1536 1537 1537 1537 1538 1538 1538 1538 1538 1539 1539 1539 1539 1539 1540 1540 1540 1540 1540 1540 1539 1539 1539 1539 1540 1540
1527 1527 1528 1528 1529 1530 1530 1531 1532 1532 1534 1534 1535 1536 1536 1537 1537 1538 1538 1538 1539 1539 1539 1540 1540 1540 1540 1540 1540 1541 1541 1541 1541 1541 1541 1541 1541 1540 1540 1540 1540 1540 1540
1528 1529 1529 1530 1530 1531 1532 1532 1533 1534 1535 1536 1536 1537 1538 1538 1538 1539 1539 1540 1540 1540 1541 1541 1541 1541 1542 1542 1542 1542 1542 1542 1542 1542 1542 1541 1541 1541 1541 1541 1541 1541 1541
1530 1530 1531 1531 1532 1532 1533 1534 1534 1535 1536 1537 1538 1539 1539 1540 1540 1540 1540 1541 1541 1542 1542 1543 1543 1543 1543 1544 1544 1544 1544 1544 1543 1543 1543 1542 1542 1542 1542 1541 1541 1541 1541
1531 1532 1532 1533 1533 1533 1534 1535 1536 1537 1538 1539 1539 1540 1541 1541 1542 1542 1542 1542 1543 1543 1544 1544 1545 1545 1545 1545 1545 1545 1545 1545 1545 1545 1544 1544 1543 1543 1543 1542 1542 1542 1542
1532 1533 1534 1534 1534 1535 1536 1536 1537 1538 1539 1540 1541 1542 1542 1543 1543 1543 1544 1544 1545 1545 1546 1546 1546 1546 1547 1547 1547 1547 1546 1546 1546 1546 1545 1545 1545 1544 1544 1543 1543 1543 1543
1533 1534 1534 1535 1535 1536 1537 1538 1538 1540 1540 1541 1542 1543 1544 1545 1545 1545 1546 1546 1546 1547 1547 1548 1548 1548 1548 1548 1548 1548 1548 1548 1547 1547 1547 1546 1546 1545 1545 1544 1544 1544 1544
1533 1534 1535 1536 1537 1537 1538 1539 1540 1541 1542 1543 1544 1545 1545 1546 1546 1546 1547 1547 1548 1548 1549 1549 1549 1550 1550 1550 1550 1549 1549 1549 1549 1548 1548 1548 1547 1546 1546 1545 1545 1545 1544
1533 1534 1535 1536 1537 1537 1538 1539 1540 1541 1542 1543 1544 1545 1546 1547 1547 1548 1548 1548 1549 1550 1550 1550 1551 1551 1551 1552 1552 1551 1551 1550 1550 1550 1549 1549 1548 1547 1546 1546 1546 1545 1545
1533 1534 1535 1536 1537 1538 1538 1540 1541 1542 1543 1544 1545 1546 1547 1547 1548 1548 1549 1550 1550 1551 1551 1552 1552 1552 1552 1553 1553 1553 1552 1552 1551 1551 1551 1550 1549 1548 1548 1547 1546 1546 1546
1532 1533 1535 1536 1537 1538 1539 1540 1541 1542 1543 1544 1545 1546 1547 1548 1549 1549 1550 1551 1551 1552 1552 1552 1553 1553 1553 1553 1554 1554 1554 1554 1553 1552 1552 1552 1551 1550 1549 1548 1548 1548 1547
1532 1533 1534 1535 1536 1538 1539 1540 1541 1542 1543 1544 1546 1547 1548 1549 1549 1550 1551 1551 1552 1552 1553 1553 1553 1554 1554 1554 1554 1555 1555 1555 1555 1554 1553 1553 1552 1551 1551 1550 1549 1549 1548
1531 1532 1533 1534 1535 1537 1538 1540 1541 1542 1543 1544 1546 1547 1548 1549 1549 1550 1551 1552 1552 1553 1553 1553 1554 1554 1554 1555 1555 1555 1556 1556 1556 1556 1555 1554 1553 1553 1552 1552 1551 1550 1550
1530 1531 1532 1533 1535 1536 1537 1539 1541 1542 1543 1544 1545 1546 1547 1548 1549 1550 1551 1552 1552 1553 1553 1554 1554 1555 1555 1555 1556 1556 1557 1557 1557 1557 1556 1556 1555 1554 1553 1553 1552 1552 1551
1529 1530 1531 1532 1534 1535 1537 1539 1540 1542 1543 1544 1545 1546 1546 1547 1549 1549 1551 1551 1552 1553 1553 1554 1555 1556 1556 1557 1557 1557 1557 1557 1558 1557 1557 1557 1556 1555 1555 1554 1553 1553 1552
1528 1529 1530 1531 1533 1534 1536 1538 1539 1541 1542 1543 1544 1545 1546 1547 1548 1549 1550 1551 1552 1552 1553 1554 1555 1556 1557 1557 1557 1557 1558 1558 1558 1558 1558 1558 1557 1557 1556 1555 1554 1553 1553
1527 1528 1529 1530 1532 1533 1535 1537 1539 1540 1541 1543 1544 1545 1546 1547 1548 1549 1550 1551 1551 1552 1553 1554 1555 1556 1557 1557 1558 1558 1558 1560 1559 1559 1559 1559 1558 1558 1557 1557 1556 1554 1554
1525 1527 1528 1529 1531 1532 1534 1536 1538 1539 1541 1542 1543 1544 1545 1546 1547 1548 1549 1550 1551 1552 1553 1554 1555 1556 1556 1557 1558 1558 1558 1558 1559 1560 1559 1559 1559 1558 1558 1557 1556 1555 1554
1524 1525 1527 1528 1530 1531 1533 1535 1537 1538 1539 1541 1542 1543 1545 1546 1546 1548 1549 1550 1551 1551 1552 1553 1554 1555 1556 1556 1557 1558 1558 1558 1558 1559 1560 1559 1559 1558 1558 1557 1557 1556 1555
1522 1524 1526 1527 1529 1530 1532 1534 1536 1537 1539 1540 1541 1542 1544 1545 1546 1547 1548 1549 1550 1551 1552 1552 1553 1554 1555 1556 1556 1556 1557 1557 1557 1557 1558 1558 1558 1558 1558 1557 1557 1556 1555
1521 1522 1524 1526 1528 1529 1531 1532 1534 1536 1538 1539 1540 1541 1542 1544 1545 1546 1547 1548 1549 1550 1551 1552 1553 1553 1554 1555 1555 1555 1556 1556 1556 1556 1556 1557 1557 1557 1557 1557 1556 1556 1555